Regional Weather Roundup
Issued by NWS

Home | Current Version | Previous Version | Text Only | Print | Product List | Glossary On
Versions: 1 2 3 4 5 6 7 8 9 10 11 12 13 14 15 16 17 18 19 20 21 22 23 24 25 26 27 28 29 30 31 32 33 34 35 36 37 38 39 40 41 42 43 44 45 46 47 48 49 50
000
ASCA44 KEWX 040420
RWRMX

LATIN AMERICA AND CARIBBEAN REGIONAL WEATHER ROUNDUP
NATIONAL WEATHER SERVICE AUSTIN/SAN ANTONIO TX
1100 PM CDT THU SEP 03 2015

NOTE: "FAIR" INDICATED FEW OR NO CLOUDS BELOW 12,000 FEET WITH NO
SIGNIFICANT WEATHER AND/OR OBSTRUCTIONS TO VISIBILITY.

BAJA CALIFORNIA

CITY           SKY/WX    TMP DP  RH WIND       PRES   REMARKS
LA PAZ         MOCLDY    82  70  65 S5        29.84R
MEXICALI       CLEAR     88  66  48 SE16      29.71  HX  90
S.J. DEL CABO  PTCLDY    82  75  78 W5        29.84R
TIJUANA        CLEAR     66  55  68 NW8       29.90R

NORTHWESTERN MEXICO

CITY           SKY/WX    TMP DP  RH WIND       PRES   REMARKS
CULIACAN       PTCLDY    86  79  79 CALM      29.83  HX  99
HERMOSILLO     CLOUDY    81  72  74 N5        29.87
CD. JUAREZ       N/A    N/A N/A N/A MISG        N/A
LOS MOCHIS       N/A    N/A N/A N/A MISG        N/A
OBREGON          N/A    N/A N/A N/A MISG        N/A

NORTHEASTERN MEXICO

CITY           SKY/WX    TMP DP  RH WIND       PRES   REMARKS
CHIHUAHUA      MOCLDY    81  45  28 NW9       30.03
MONCLOVA         N/A    N/A N/A N/A MISG        N/A
MONTERREY      PTCLDY    79  68  69 E15       29.88R
PIEDRAS NEGRAS   N/A    N/A N/A N/A MISG        N/A
SALTILLO         N/A    N/A N/A N/A MISG        N/A
TORREON        PTCLDY    86  45  23 NE5       29.96R

WESTERN MEXICO

CITY           SKY/WX    TMP DP  RH WIND       PRES   REMARKS
AGUASCALIENTES PTCLDY    64  57  77 W7        30.20
DEL BAJIO      MOCLDY    66  61  82 W9        30.21R
GUADALAJARA    MOCLDY    70  63  78 NW7       30.11
MAZATLAN       CLOUDY    82  73  74 N10       29.81R
P. VALLARTA    MOCLDY    79  75  89 E3        29.83R
ZACATECAS      CLEAR     64  50  59 S6        30.21R

CENTRAL MEXICO

CITY           SKY/WX    TMP DP  RH WIND       PRES   REMARKS
MEXICO CITY    MOCLDY    61  55  82 E7        30.30R
PUEBLA         CLOUDY    59  54  82 CALM      30.30R
QUERETARO      MOCLDY    63  57  82 SE6       30.25R
S. LUIS POTOSI CLOUDY    64  57  77 SE5       30.18R
TAMPICO        PTCLDY    84  77  79 SE15      29.87R HX  94
TOLUCA         MOCLDY    54  52  94 SE6       30.36R

SOUTHERN MEXICO

CITY           SKY/WX    TMP DP  RH WIND       PRES   REMARKS
ACAPULCO       CLOUDY    81  77  89 E5        29.87R
OAXACA         CLOUDY    66  61  82 SE3       30.22R
VERACRUZ       MOCLDY    81  79  94 W5        29.87R
ZIHUATANEJO      N/A    N/A N/A N/A MISG        N/A

YUCATAN PENINSULA

CITY           SKY/WX    TMP DP  RH WIND       PRES   REMARKS
CAMPECHE       PTCLDY    81  73  78 E6        29.88R
CANCUN         PTCLDY    82  79  89 NE3       29.97R HX  93
CD. DEL CARMEN MOCLDY    84  72  65 SE13G30   29.90  THUNDER
COZUMEL        PTCLDY    77  75  94 CALM      29.97R
MERIDA         PTCLDY    82  73  74 E8        29.92R
TAPACHULA      MOCLDY    75  73  94 NE8       29.92R
TUX. GUTIERREZ CLOUDY    68  66  94 S3        29.97R
VILLAHERMOSA   PTCLDY    79  73  83 CALM      29.88R

CENTRAL AMERICA

CITY           SKY/WX    TMP DP  RH WIND       PRES   REMARKS
MANAGUA        PTCLDY    77  70  78 SE7       29.86S

CARIBBEAN

CITY           SKY/WX    TMP DP  RH WIND       PRES   REMARKS
ARUBA          PTCLDY    84  77  79 E18       29.86S HX  94
CURACAO        PTCLDY    84  77  79 E12       29.92S HX  94
NASSAU         PTCLDY    81  75  83 CALM      29.98S
SAN JUAN       CLEAR     81  73  78 CALM      29.97F
SANTO DOMINGO  PTCLDY    81  75  83 CALM      29.94S
ST. CROIX      CLEAR     79  73  83 N3        29.99
ST. MAARTEN    PTCLDY    82  75  78 E5        29.97S
ST. THOMAS     CLEAR     82  75  78 E6        29.97

$$



USA.gov is the U.S. government's official web portal to all federal, state and local government web resources and services.